Location: Tierz
(42.1336°N, 0.3549°W)
Time: 06:12:54
(UTC+00:00)

Cosmos 2228 - Pass Details

Date: 29 October 2020
Orbit: 590 x 617 km, 82.5° (Epoch: 26 November)

Event Time Altitude Azimuth Distance (km) Brightness Sun altitude
Rises 17:20:52 0° 186° (S) 2,810 6.7 -4.8°
Reaches altitude 10° 17:23:03 10° 187° (S) 1,916 5.9 -5.2°
Maximum altitude 17:27:17 90° 285° (WNW) 601 3.0 -6.0°
Drops below altitude 10° 17:31:35 10° 8° (N) 1,945 5.4 -6.7°
Sets 17:33:49 0° 8° (N) 2,856 6.3 -7.1°
